Regional Weather Roundup
Issued by NWS

Home | Current Version | Previous Version | Text Only | Print | Product List | Glossary Off
Versions: 1 2 3 4 5 6 7 8 9 10 11 12 13 14 15 16 17 18 19 20 21 22 23 24 25 26 27 28 29 30 31 32 33 34 35 36 37 38 39 40 41 42 43 44 45 46 47 48 49 50

000
ASUS45 KBOI 232210
RWRID

IDAHO REGIONAL WEATHER ROUNDUP
NATIONAL WEATHER SERVICE BOISE ID
400 PM MDT SAT MAY 23 2015

NOTE: "FAIR" INDICATES FEW OR NO CLOUDS BELOW 12000 FEET
WITH NO SIGNIFICANT WEATHER AND/OR OBSTRUCTIONS TO VISIBILITY

IDZ012-014-232300-
SOUTHWEST IDAHO


CITY           SKY/WX    TMP DP  RH WIND       PRES   REMARKS
BOISE          LGT RAIN  76  48  37 W15G29    29.82F
CALDWELL       MOSUNNY   79  48  34 NW17      29.84F
MOUNTAIN HOME  PTSUNNY   76  46  34 NW13G21   29.83F
$$

IDZ016-017-232300-
SOUTHCENTRAL IDAHO


CITY           SKY/WX    TMP DP  RH WIND       PRES   REMARKS
BURLEY         LGT RAIN  52  48  86 SE16      29.91R
JEROME         LGT RAIN  63  49  60 NW5       29.89F
TWIN FALLS     PTSUNNY   69  46  43 NW9       29.86F
$$

IDZ019>023-232300-
SOUTHEAST IDAHO


CITY           SKY/WX    TMP DP  RH WIND       PRES   REMARKS
IDAHO FALLS    RAIN      52  48  86 SE8       29.96R FOG
POCATELLO      CLOUDY    55  49  80 NW7       29.96R
REXBURG        LGT RAIN  51  47  86 S9        29.96R
$$

IDZ006-010-011-018-031-032-232300-
CENTRAL IDAHO MOUNTAINS


CITY           SKY/WX    TMP DP  RH WIND       PRES   REMARKS
MCCALL         MOSUNNY   69  38  32 N14G20    29.93F
HAILEY         PTSUNNY   61  48  63 S10       29.93F
STANLEY          N/A     63  35  35 N10G18    29.97F
SALMON         PTSUNNY   70  39  32 SE12G21   29.91F
CHALLIS        PTSUNNY   64  38  38 NE13      29.94S
$$

IDZ002-004-006-007-026-232300-
NORTHERN IDAHO


CITY           SKY/WX    TMP DP  RH WIND       PRES   REMARKS
LEWISTON       SUNNY     76  53  44 NW13      29.95F
LOWELL           N/A     77  53  43 CALM      29.89S
COEUR D`ALENE  SUNNY     82  37  20 N14G20    29.94F
MULLAN PASS    MOSUNNY   67  31  26 VRB3      30.11F
$$


USA.gov is the U.S. government's official web portal to all federal, state and local government web resources and services.